DW4993 Weather Reports


Display with metric or nautical units.
time (UTC)temp
F
wind
direction
speed
MPH
gust
MPH
rain 1hr
in
rain 24hr
in
rain mn
in
humidity
%
barometer
mb
20200703134304 54 279 0.0 2.0 0.00 0.00 0.00 66 1010.6
20200703133805 54 279 1.0 2.0 0.00 0.00 0.00 67 1010.6
20200703133304 53 279 0.0 0.0 0.00 0.00 0.00 68 1010.5
20200703132804 53 279 0.0 0.0 0.00 0.00 0.00 68 1010.4
20200703132305 53 279 0.0 0.0 0.00 0.00 0.00 68 1010.4
20200703131804 52 279 0.0 0.0 0.00 0.00 0.00 68 1010.3
20200703131304 52 279 0.0 0.0 0.00 0.00 0.00 68 1010.3
20200703130804 52 279 0.0 0.0 0.00 0.00 0.00 70 1010.2
20200703130304 52 279 0.0 0.0 0.00 0.00 0.00 71 1010.1
20200703125804 51 279 0.0 0.0 0.00 0.00 0.00 70 1010.1
20200703125304 51 279 0.0 0.0 0.00 0.00 0.00 70 1010.1
20200703124804 51 279 0.0 0.0 0.00 0.00 0.00 71 1010.0
20200703124304 51 279 0.0 0.0 0.00 0.00 0.00 72 1010.0
20200703123804 51 279 0.0 0.0 0.00 0.00 0.00 72 1009.9
20200703123304 51 279 0.0 0.0 0.00 0.00 0.00 72 1009.8
20200703122804 50 279 0.0 0.0 0.00 0.00 0.00 73 1009.8
20200703122304 50 279 0.0 0.0 0.00 0.00 0.00 73 1009.6
20200703121804 50 279 0.0 0.0 0.00 0.00 0.00 73 1009.6
20200703121305 50 279 0.0 0.0 0.00 0.00 0.00 72 1009.6
20200703120804 50 279 0.0 0.0 0.00 0.00 0.00 72 1009.6
20200703120304 50 279 0.0 0.0 0.00 0.00 0.00 71 1009.4
20200703115804 50 279 0.0 2.0 0.00 0.00 0.00 71 1009.4
20200703115305 50 279 0.0 2.0 0.00 0.00 0.00 71 1009.4
20200703114803 50 279 0.0 0.0 0.00 0.00 0.00 70 1009.4
20200703114304 50 279 0.0 0.0 0.00 0.00 0.00 69 1009.3
20200703113804 50 279 0.0 0.0 0.00 0.00 0.00 68 1009.3
20200703113304 50 279 0.0 0.0 0.00 0.00 0.00 68 1009.2
20200703112804 51 279 0.0 0.0 0.00 0.00 0.00 67 1009.2
20200703112306 51 279 0.0 0.0 0.00 0.00 0.00 66 1009.2
20200703111804 51 279 0.0 0.0 0.00 0.00 0.00 65 1009.1
20200703111304 52 279 0.0 0.0 0.00 0.00 0.00 65 1009.0
20200703110803 52 279 0.0 0.0 0.00 0.00 0.00 62 1009.0
20200703110304 52 279 0.0 0.0 0.00 0.00 0.00 62 1009.0
20200703105804 53 279 0.0 0.0 0.00 0.00 0.00 61 1009.0
20200703105306 53 279 0.0 0.0 0.00 0.00 0.00 61 1009.0
20200703104804 53 279 0.0 2.0 0.00 0.00 0.00 60 1008.9
20200703104304 53 279 1.0 2.0 0.00 0.00 0.00 59 1008.9
20200703103804 53 279 1.0 2.0 0.00 0.00 0.00 58 1008.8
20200703103303 53 279 1.0 3.0 0.00 0.00 0.00 59 1008.7
20200703102804 53 279 1.0 3.0 0.00 0.00 0.00 59 1008.6
20200703102306 53 271 3.0 7.0 0.00 0.00 0.00 59 1008.5
20200703101804 53 243 2.0 3.0 0.00 0.00 0.00 59 1008.5
20200703101303 53 243 2.0 3.0 0.00 0.00 0.00 58 1008.5
20200703100804 53 243 0.0 2.0 0.00 0.00 0.00 59 1008.5
20200703100304 53 243 1.0 3.0 0.00 0.00 0.00 58 1008.4
20200703095804 53 263 2.0 3.0 0.00 0.00 0.00 58 1008.3
20200703095306 53 262 2.0 3.0 0.00 0.00 0.00 57 1008.2
20200703094804 54 263 1.0 2.0 0.00 0.00 0.00 57 1008.2
20200703094303 54 263 2.0 3.0 0.00 0.00 0.00 56 1008.1
20200703093803 54 263 2.0 3.0 0.00 0.00 0.00 56 1008.1
20200703093303 54 256 2.0 3.0 0.00 0.00 0.00 56 1008.0
20200703092804 53 256 2.0 3.0 0.00 0.00 0.00 56 1008.0
20200703092305 53 256 2.0 3.0 0.00 0.00 0.00 57 1008.0
20200703091804 53 272 3.0 3.0 0.00 0.00 0.00 57 1007.9
20200703091303 53 273 1.0 3.0 0.00 0.00 0.00 58 1007.9
20200703090804 53 273 2.0 3.0 0.00 0.00 0.00 58 1007.8
20200703090304 53 273 2.0 3.0 0.00 0.00 0.00 58 1007.8
20200703085803 53 273 1.0 3.0 0.00 0.00 0.00 59 1007.8
20200703085306 53 273 2.0 3.0 0.00 0.00 0.00 59 1007.7
20200703084804 53 273 0.0 0.0 0.00 0.00 0.00 58 1007.7
20200703084304 53 273 0.0 0.0 0.00 0.00 0.00 58 1007.7
20200703083804 53 273 0.0 0.0 0.00 0.00 0.00 57 1007.6
20200703083304 53 273 1.0 2.0 0.00 0.00 0.00 57 1007.6
20200703082804 54 273 1.0 3.0 0.00 0.00 0.00 57 1007.6
20200703082305 54 273 2.0 3.0 0.00 0.00 0.00 56 1007.5
20200703081805 54 273 2.0 3.0 0.00 0.00 0.00 56 1007.5
20200703081305 54 273 1.0 3.0 0.00 0.00 0.00 56 1007.4
20200703080805 54 272 2.0 3.0 0.00 0.00 0.00 57 1007.3
20200703080305 54 273 0.0 0.0 0.00 0.00 0.00 57 1007.3
20200703075805 54 273 0.0 1.0 0.00 0.00 0.00 56 1007.3
20200703075306 54 273 1.0 3.0 0.00 0.00 0.00 56 1007.2
20200703074805 53 273 1.0 3.0 0.00 0.00 0.00 57 1007.2
20200703074305 53 282 2.0 3.0 0.00 0.00 0.00 58 1007.2
20200703073804 53 276 0.0 3.0 0.00 0.00 0.00 59 1007.1
20200703073304 53 276 1.0 3.0 0.00 0.00 0.00 59 1007.1
20200703072805 53 315 1.0 2.0 0.00 0.00 0.00 60 1007.1
20200703072306 53 315 1.0 3.0 0.00 0.00 0.00 61 1007.0
20200703071805 53 315 1.0 3.0 0.00 0.00 0.00 61 1007.0
20200703071305 52 316 1.0 6.0 0.00 0.00 0.00 62 1007.0
20200703070804 52 314 1.0 3.0 0.00 0.00 0.00 64 1006.9
20200703070305 52 335 0.0 2.0 0.00 0.00 0.00 64 1006.8
20200703065805 53 335 1.0 2.0 0.00 0.00 0.00 64 1006.8
20200703065305 53 335 1.0 3.0 0.00 0.00 0.00 64 1006.8
20200703064806 53 335 1.0 3.0 0.00 0.00 0.00 63 1006.7
20200703064304 53 335 1.0 2.0 0.00 0.00 0.00 63 1006.7
20200703063805 54 336 1.0 3.0 0.00 0.00 0.00 63 1006.7
20200703063305 54 289 2.0 3.0 0.00 0.00 0.00 63 1006.7
20200703062804 54 262 0.0 3.0 0.00 0.00 0.00 63 1006.7
20200703062305 54 260 1.0 3.0 0.00 0.00 0.00 63 1006.7
20200703061806 54 258 1.0 2.0 0.00 0.00 0.00 64 1006.7
20200703061306 54 258 1.0 3.0 0.00 0.00 0.00 64 1006.7
20200703060813 53 256 2.0 3.0 0.00 0.00 0.00 65 1006.8
20200703060305 53 212 0.0 2.0 0.00 0.00 0.00 65 1006.9
20200703055805 54 212 0.0 2.0 0.00 0.00 0.00 66 1006.9
20200703055305 53 212 1.0 2.0 0.00 0.00 0.00 66 1006.9
20200703054804 54 212 0.0 1.0 0.00 0.00 0.00 66 1007.0
20200703054305 54 212 0.0 0.0 0.00 0.00 0.00 65 1006.9
20200703053804 54 212 0.0 0.0 0.00 0.00 0.00 64 1006.9
20200703053305 55 212 0.0 0.0 0.00 0.00 0.00 63 1006.9
20200703052805 55 212 0.0 1.0 0.00 0.00 0.00 63 1006.9
20200703052305 55 212 0.0 0.0 0.00 0.00 0.00 62 1006.9
20200703051805 55 212 0.0 0.0 0.00 0.00 0.00 62 1006.9
20200703051305 56 212 1.0 1.0 0.00 0.00 0.00 61 1006.8
20200703050805 56 212 0.0 1.0 0.00 0.00 0.00 61 1006.8
20200703050305 56 212 0.0 2.0 0.00 0.00 0.00 60 1006.6
20200703045805 56 212 0.0 2.0 0.00 0.00 0.00 60 1006.6
20200703045304 57 212 0.0 1.0 0.00 0.00 0.00 59 1006.5
20200703044805 57 212 1.0 2.0 0.00 0.00 0.00 58 1006.4
20200703044305 57 212 0.0 2.0 0.00 0.00 0.00 57 1006.4
20200703043805 57 212 0.0 1.0 0.00 0.00 0.00 57 1006.4
20200703043305 58 212 1.0 3.0 0.00 0.00 0.00 56 1006.3
20200703042805 58 212 1.0 3.0 0.00 0.00 0.00 56 1006.1
20200703042305 58 274 1.0 3.0 0.00 0.00 0.00 56 1006.0
20200703041805 58 284 0.0 2.0 0.00 0.00 0.00 55 1005.9
20200703041305 59 284 0.0 0.0 0.00 0.00 0.00 54 1005.9
20200703040805 59 284 0.0 0.0 0.00 0.00 0.00 54 1005.8
20200703040305 60 284 0.0 0.0 0.00 0.00 0.00 52 1005.7
20200703035805 60 284 0.0 0.0 0.00 0.00 0.00 51 1005.6
20200703035304 60 284 0.0 0.0 0.00 0.00 0.00 51 1005.3
20200703034805 61 284 0.0 1.0 0.00 0.00 0.00 49 1005.3
20200703034305 61 284 2.0 3.0 0.00 0.00 0.00 48 1005.3
20200703033805 61 284 1.0 3.0 0.00 0.00 0.00 48 1005.3
20200703033305 61 284 2.0 3.0 0.00 0.00 0.00 48 1005.2
20200703032805 61 287 2.0 3.0 0.00 0.00 0.00 48 1005.0
20200703032304 61 297 2.0 5.0 0.00 0.00 0.00 47 1004.9
20200703031805 61 296 3.0 7.0 0.00 0.00 0.00 47 1005.0
20200703031304 62 297 2.0 6.0 0.00 0.00 0.00 46 1005.0
20200703030804 62 288 2.0 6.0 0.00 0.00 0.00 47 1005.0
20200703030305 62 327 2.0 3.0 0.00 0.00 0.00 47 1004.9
20200703025805 62 293 3.0 6.0 0.00 0.00 0.00 47 1004.8
20200703025305 63 300 2.0 6.0 0.00 0.00 0.00 47 1004.7
20200703024805 63 297 2.0 3.0 0.00 0.00 0.00 46 1004.8
20200703024304 63 304 3.0 6.0 0.00 0.00 0.00 45 1004.7
20200703023805 63 300 2.0 7.0 0.00 0.00 0.00 45 1004.6
20200703023305 63 288 3.0 10.0 0.00 0.00 0.00 44 1004.5
20200703022805 63 277 5.0 12.0 0.00 0.00 0.00 44 1004.4
20200703022304 64 285 4.0 10.0 0.00 0.00 0.00 44 1004.3
20200703021805 64 298 5.0 8.0 0.00 0.00 0.00 43 1004.2
20200703021305 64 287 5.0 10.0 0.00 0.00 0.00 42 1004.2
20200703020805 64 295 5.0 12.0 0.00 0.00 0.00 42 1004.2
20200703020304 64 275 5.0 9.0 0.00 0.00 0.00 41 1004.2
20200703015805 65 296 6.0 9.0 0.00 0.00 0.00 41 1004.1
20200703015305 65 276 6.0 10.0 0.00 0.00 0.00 40 1003.8
20200703014805 65 303 5.0 12.0 0.00 0.00 0.00 40 1003.7
20200703014305 65 237 4.0 13.0 0.00 0.00 0.00 42 1003.7
20200703013805 65 286 5.0 10.0 0.00 0.00 0.00 41 1003.6
20200703013305 65 289 5.0 13.0 0.00 0.00 0.00 41 1003.5
20200703012805 66 283 6.0 13.0 0.00 0.00 0.00 42 1003.4
20200703012305 66 287 6.0 12.0 0.00 0.00 0.00 40 1003.3
20200703011805 66 296 6.0 13.0 0.00 0.00 0.00 40 1003.3
20200703011304 66 279 6.0 14.0 0.00 0.00 0.00 40 1003.2
20200703010805 66 290 7.0 12.0 0.00 0.00 0.00 39 1003.1
20200703010305 66 289 6.0 12.0 0.00 0.00 0.00 39 1003.0
20200703005805 67 292 7.0 12.0 0.00 0.00 0.00 39 1003.0
20200703005305 67 287 4.0 12.0 0.00 0.00 0.00 39 1002.9
20200703004805 67 304 5.0 12.0 0.00 0.00 0.00 38 1002.8
20200703004304 67 320 5.0 9.0 0.00 0.00 0.00 38 1002.8
20200703003805 67 289 6.0 12.0 0.00 0.00 0.00 37 1002.7
20200703003305 67 283 7.0 12.0 0.00 0.00 0.00 36 1002.7
20200703002805 67 256 6.0 12.0 0.00 0.00 0.00 37 1002.6
20200703002304 68 275 4.0 12.0 0.00 0.00 0.00 38 1002.6
20200703001805 68 289 3.0 7.0 0.00 0.00 0.00 39 1002.5
20200703001304 67 276 3.0 7.0 0.00 0.00 0.00 41 1002.5
20200703000805 68 299 3.0 8.0 0.00 0.00 0.00 41 1002.4
20200703000304 68 293 5.0 10.0 0.00 0.00 0.00 41 1002.3
20200702235805 68 293 4.0 7.0 0.00 0.00 0.00 40 1002.2
20200702235305 68 260 1.0 7.0 0.00 0.00 0.00 41 1002.1
20200702234805 68 273 6.0 12.0 0.00 0.00 0.00 39 1002.2
20200702234305 68 254 5.0 8.0 0.00 0.00 0.00 40 1002.1
20200702233805 68 291 5.0 10.0 0.00 0.00 0.00 39 1002.1
20200702233305 68 272 5.0 10.0 0.00 0.00 0.00 38 1002.0
20200702232804 68 253 5.0 9.0 0.00 0.00 0.00 38 1001.9
20200702232304 68 259 2.0 5.0 0.00 0.00 0.00 38 1001.8
20200702231805 68 311 4.0 7.0 0.00 0.00 0.00 39 1001.7
20200702231304 68 281 5.0 9.0 0.00 0.00 0.00 38 1001.6
20200702230805 68 254 8.0 13.0 0.00 0.00 0.00 36 1001.5
20200702230304 68 257 5.0 9.0 0.00 0.00 0.00 37 1001.5
20200702225805 68 267 7.0 12.0 0.00 0.00 0.00 36 1001.5
20200702225305 68 266 5.0 9.0 0.00 0.00 0.00 38 1001.5
20200702224805 67 286 6.0 12.0 0.00 0.00 0.00 37 1001.5
20200702224305 67 297 6.0 12.0 0.00 0.00 0.00 37 1001.4
20200702223806 67 289 6.0 12.0 0.00 0.00 0.00 38 1001.5
20200702223305 67 287 6.0 10.0 0.00 0.00 0.00 39 1001.4
20200702222804 67 277 5.0 12.0 0.00 0.00 0.00 38 1001.4
20200702222305 67 291 5.0 10.0 0.00 0.00 0.00 40 1001.4
20200702221805 67 288 5.0 9.0 0.00 0.00 0.00 39 1001.3
20200702221305 67 302 6.0 10.0 0.00 0.00 0.00 38 1001.3
20200702220805 67 282 4.0 12.0 0.00 0.00 0.00 39 1001.2
20200702220304 67 286 6.0 10.0 0.00 0.00 0.00 37 1001.2
20200702215805 68 273 7.0 12.0 0.00 0.00 0.00 36 1001.0
20200702215305 68 284 6.0 12.0 0.00 0.00 0.00 38 1001.0
20200702214804 68 291 6.0 13.0 0.00 0.00 0.00 37 1000.9
20200702214305 69 289 6.0 13.0 0.00 0.00 0.00 36 1000.8
20200702213805 69 302 7.0 13.0 0.00 0.00 0.00 37 1000.8
20200702213305 68 290 8.0 13.0 0.00 0.00 0.00 35 1000.6
20200702212804 68 278 9.0 14.0 0.00 0.00 0.00 36 1000.6
20200702212305 67 291 7.0 12.0 0.00 0.00 0.00 37 1000.5
20200702211804 67 308 9.0 12.0 0.00 0.00 0.00 36 1000.5
20200702211304 66 307 6.0 13.0 0.00 0.00 0.00 38 1000.4
20200702210804 66 308 6.0 14.0 0.00 0.00 0.00 38 1000.4
20200702210306 66 286 8.0 13.0 0.00 0.00 0.00 37 1000.4
20200702205804 66 328 7.0 14.0 0.00 0.00 0.00 37 1000.4
20200702205305 66 295 11.0 18.0 0.00 0.00 0.00 36 1000.2
20200702204805 67 298 11.0 18.0 0.00 0.00 0.00 35 1000.1
20200702204305 67 291 6.0 13.0 0.00 0.00 0.00 36 1000.0
20200702203805 67 280 8.0 13.0 0.00 0.00 0.00 36 1000.0
20200702203305 67 280 7.0 13.0 0.00 0.00 0.00 35 999.9
20200702202805 68 308 8.0 16.0 0.00 0.00 0.00 35 999.7
20200702202305 68 277 10.0 22.0 0.00 0.00 0.00 35 999.7
20200702201805 68 278 9.0 18.0 0.00 0.00 0.00 38 999.5
20200702201305 68 285 7.0 14.0 0.00 0.00 0.00 38 999.4
20200702200805 68 261 6.0 14.0 0.00 0.00 0.00 39 999.2
20200702200304 68 300 8.0 14.0 0.00 0.00 0.00 39 999.2
20200702195805 68 264 7.0 12.0 0.00 0.00 0.00 38 998.9
20200702195305 68 262 9.0 14.0 0.00 0.00 0.00 38 998.9
20200702194804 68 280 7.0 12.0 0.00 0.00 0.00 39 998.7
20200702194305 68 270 5.0 12.0 0.00 0.00 0.00 38 998.6
20200702193805 69 249 8.0 14.0 0.00 0.00 0.00 36 998.5
20200702193305 69 272 6.0 13.0 0.00 0.00 0.00 38 998.5
20200702192804 68 270 6.0 10.0 0.00 0.00 0.00 39 998.3
20200702192305 68 274 4.0 10.0 0.00 0.00 0.00 40 998.2
20200702191804 68 271 6.0 12.0 0.00 0.00 0.00 39 998.2
20200702191305 67 278 5.0 16.0 0.00 0.00 0.00 40 998.1
20200702190805 67 271 6.0 16.0 0.00 0.00 0.00 40 998.0
20200702190305 66 260 7.0 12.0 0.00 0.00 0.00 41 997.8
20200702185805 66 257 9.0 14.0 0.00 0.00 0.00 39 997.8
20200702185304 67 248 7.0 14.0 0.00 0.00 0.00 38 997.7
20200702184805 67 277 7.0 14.0 0.00 0.00 0.00 38 997.7
20200702184304 67 277 11.0 18.0 0.00 0.00 0.00 35 997.7
20200702183805 68 296 9.0 17.0 0.00 0.00 0.00 36 997.7
20200702183305 68 259 10.0 17.0 0.00 0.00 0.00 35 997.4
20200702182805 68 273 7.0 21.0 0.00 0.00 0.00 36 997.3
20200702182305 68 285 6.0 13.0 0.00 0.00 0.00 35 997.3
20200702181804 68 280 8.0 15.0 0.00 0.00 0.00 36 997.2
20200702181304 68 266 10.0 18.0 0.00 0.00 0.00 37 997.2
20200702180805 67 293 7.0 12.0 0.00 0.00 0.00 39 997.1
20200702180305 67 301 6.0 15.0 0.00 0.00 0.00 38 997.1
20200702175806 67 270 9.0 20.0 0.00 0.00 0.00 38 997.0
20200702175305 66 286 6.0 14.0 0.00 0.00 0.00 38 996.9
20200702174804 66 276 6.0 12.0 0.00 0.00 0.00 37 996.7
20200702174305 66 280 7.0 12.0 0.00 0.00 0.00 38 996.7
20200702173805 66 306 5.0 14.0 0.00 0.00 0.00 39 996.5
20200702173305 66 271 9.0 16.0 0.00 0.00 0.00 37 996.4
20200702172805 66 288 5.0 12.0 0.00 0.00 0.00 38 996.3
20200702172305 66 281 10.0 16.0 0.00 0.00 0.00 37 996.2
20200702171805 66 288 6.0 13.0 0.00 0.00 0.00 39 996.3
20200702171304 66 266 8.0 14.0 0.00 0.00 0.00 39 996.0
20200702170805 65 298 6.0 13.0 0.00 0.00 0.00 40 996.0
20200702170305 65 283 9.0 14.0 0.00 0.00 0.00 39 995.9
20200702165805 65 264 7.0 14.0 0.00 0.00 0.00 40 995.7
20200702165305 65 270 7.0 12.0 0.00 0.00 0.00 40 995.7
20200702164804 65 268 6.0 14.0 0.00 0.00 0.00 41 995.7
20200702164306 65 278 7.0 14.0 0.00 0.00 0.00 42 995.7
20200702163805 64 277 7.0 14.0 0.00 0.00 0.00 43 995.7
20200702163305 64 253 7.0 13.0 0.00 0.00 0.00 41 995.8
20200702162805 64 264 9.0 16.0 0.00 0.00 0.00 42 995.8
20200702162305 64 288 6.0 15.0 0.00 0.00 0.00 41 995.7
20200702161804 65 285 7.0 13.0 0.00 0.00 0.00 41 995.7
20200702161304 64 265 7.0 13.0 0.00 0.00 0.00 42 995.8
20200702160805 64 263 7.0 13.0 0.00 0.00 0.00 41 995.8
20200702160304 64 271 9.0 15.0 0.00 0.00 0.00 40 995.8
20200702155805 64 275 7.0 10.0 0.00 0.00 0.00 41 995.7
20200702155304 64 287 7.0 13.0 0.00 0.00 0.00 42 995.8
20200702154805 64 279 6.0 12.0 0.00 0.00 0.00 42 995.7
20200702154305 63 256 5.0 13.0 0.00 0.00 0.00 44 995.5
20200702153805 63 249 7.0 13.0 0.00 0.00 0.00 45 995.4
20200702153305 63 253 9.0 14.0 0.00 0.00 0.00 44 995.4
20200702152805 63 242 7.0 13.0 0.00 0.00 0.00 44 995.4
20200702152304 62 266 7.0 12.0 0.00 0.00 0.00 44 995.4
20200702151804 62 262 5.0 10.0 0.00 0.00 0.00 45 995.4
20200702151305 62 279 5.0 12.0 0.00 0.00 0.00 45 995.3
20200702150805 62 266 8.0 13.0 0.00 0.00 0.00 45 995.2
20200702150305 62 246 7.0 13.0 0.00 0.00 0.00 44 995.0
20200702145805 61 259 9.0 15.0 0.00 0.00 0.00 44 995.0
20200702145305 61 254 7.0 14.0 0.00 0.00 0.00 46 994.9
20200702144804 61 272 6.0 14.0 0.00 0.00 0.00 47 994.8
20200702144305 60 249 6.0 13.0 0.00 0.00 0.00 47 994.8
20200702143805 59 252 6.0 12.0 0.00 0.00 0.00 48 994.7
20200702143305 59 253 7.0 12.0 0.00 0.00 0.00 48 994.7
20200702142804 59 236 5.0 14.0 0.00 0.00 0.00 49 994.6
20200702142305 59 244 9.0 17.0 0.00 0.00 0.00 48 994.6
20200702141805 59 250 8.0 16.0 0.00 0.00 0.00 48 994.6
20200702141305 58 258 6.0 12.0 0.00 0.00 0.00 50 994.4
20200702140804 58 237 6.0 12.0 0.00 0.00 0.00 51 994.3
20200702140305 58 229 5.0 9.0 0.00 0.00 0.00 51 994.4
20200702135804 57 229 5.0 9.0 0.00 0.00 0.00 52 994.5
20200702135305 57 238 6.0 10.0 0.00 0.00 0.00 52 994.5
20200702134805 57 256 4.0 8.0 0.00 0.00 0.00 54 994.5